Meteor 1-28 Rocket - Orbit

View from above orbital plane
View from above orbital plane
View from above satellite
View from above satellite

Ground track
Ground track

The orbit data is extracted from the following two-line orbital elements,

1 10114U 77057B   13142.17157075  .00001143  00000-0  70675-4 0  9759
2 10114 097.3260 014.6077 0017680 096.8195 263.5048 15.11613394958465
Epoch (UTC): 22 May 2013 04:07:03
Eccentricity: 0.0017680
inclination: 97.3260°
perigee height: 519 km
apogee height: 543 km
right ascension of ascending node: 14.6077°
argument of perigee: 96.8195°
revolutions per day: 15.11613394
mean anomaly at epoch: 263.5048°
orbit number at epoch: 95846

The dashed part of the orbit path shows where the satellite is in the earth's shadow,  

Developed and maintained by Chris Peat, Heavens-Above GmbH. Please read the updated FAQ before sending e-mail. Imprint. DLR